Weather History for KUIL - October, 2011

Change the Weather History Date:

Sunday, October 23, 2011

  Actual Average Record
Temperature  
Mean Temperature 49 °F 48 °F  
Max Temperature 58 °F 56 °F 72 °F (2007)
Min Temperature 39 °F 41 °F 30 °F (1975)
Degree Days  
Heating Degree Days 16 17  
Month to date heating degree days 327  
Since 1 July heating degree days 952  
Cooling Degree Days 0 0  
Month to date cooling degree days 0  
Year to date cooling degree days 19  
Moisture  
Dew Point 45 °F    
Average Humidity 97    
Maximum Humidity 100    
Minimum Humidity 64    
Precipitation  
Precipitation 0.01 in 0.39 in 2.20 in (1968)
Month to date precipitation 7.07  
Year to date precipitation 67.61  
Sea Level Pressure  
Sea Level Pressure 30.20 in    
Wind  
Wind Speed 2 mph (West)    
Max Wind Speed 10 mph    
Max Gust Speed 17 mph    
Visibility 2 miles    
Events Fog , Rain    
T = Trace of Precipitation, MM = Missing Value Source: NWS Daily Summary

Daily Weather History Graph

Daily Weather History Graph

Search for Another Location

Airport or City:

Trip Planner

Search our weather history database for the weather conditions in past years. The results will help you decide how hot, cold, wet, or windy it might be!

Date:

Astronomy

Oct. 23, 2011 Rise Set
Actual Time 7:49 AM PDT 6:15 PM PDT
Civil Twilight 7:17 AM PDT 6:46 PM PDT
Nautical Twilight 6:41 AM PDT 7:23 PM PDT
Astronomical Twilight 6:05 AM PDT 7:58 PM PDT
Moon 3:48 AM PDT (10/23) 4:20 PM PDT (10/23)
Length of Visible Light 11h 29m
Length of Day
10h 26m
Waning Crescent, 13% of the Moon is Illuminated
Oct 23
Waning Crescent
Oct 26
New
Nov 2
First Quarter
Nov 10
Full
Nov 18
Last Quarter

Hourly Weather History & Observations

Time (PDT) Temp. Windchill Dew Point Humidity Pressure Visibility Wind Dir Wind Speed Gust Speed Precip Events Conditions
12:18 AM 51.8 °F - 51.8 °F 100% 30.20 in 3.0 mi West 3.5 mph - N/A   Mostly Cloudy
12:25 AM 51.8 °F - 51.8 °F 100% 30.20 in 10.0 mi WNW 3.5 mph - N/A   Mostly Cloudy
12:37 AM 50.0 °F - 50.0 °F 100% 30.20 in 2.0 mi Calm Calm - N/A   Scattered Clouds
12:39 AM 50.0 °F - 50.0 °F 100% 30.20 in 1.2 mi Calm Calm - N/A   Partly Cloudy
12:53 AM 50.0 °F - 48.9 °F 96% 30.20 in 1.2 mi Calm Calm - N/A   Partly Cloudy
1:05 AM 48.2 °F - 48.2 °F 100% 30.20 in 0.5 mi Calm Calm - N/A Fog Fog
1:34 AM 46.4 °F - 46.4 °F 100% 30.21 in 0.5 mi Calm Calm - N/A Fog Fog
1:46 AM 46.4 °F - 46.4 °F 100% 30.21 in 0.2 mi Calm Calm - N/A Fog Fog
1:53 AM 46.9 °F - 46.9 °F 100% 30.21 in 0.2 mi Calm Calm - N/A Fog Fog
2:05 AM 46.4 °F - 46.4 °F 100% 30.21 in 0.2 mi Calm Calm - N/A Fog Fog
2:16 AM 46.4 °F - 46.4 °F 100% 30.21 in 0.5 mi Calm Calm - N/A Fog Fog
2:42 AM 46.4 °F - 46.4 °F 100% 30.21 in 0.2 mi Calm Calm - N/A Fog Fog
2:53 AM 46.9 °F - 46.9 °F 100% 30.22 in 0.2 mi Calm Calm - N/A Fog Fog
3:06 AM 46.4 °F - 46.4 °F 100% 30.22 in 0.2 mi Calm Calm - N/A Fog Fog
3:13 AM 44.6 °F - 44.6 °F 100% 30.21 in 0.5 mi Calm Calm - N/A Fog Fog
3:23 AM 46.4 °F - 46.4 °F 100% 30.21 in 0.2 mi Calm Calm - N/A Fog Fog
3:53 AM 44.1 °F 42.5 °F 44.1 °F 100% 30.21 in 0.2 mi NE 3.5 mph - N/A Fog Fog
4:16 AM 44.6 °F - 44.6 °F 100% 30.20 in 0.5 mi Calm Calm - N/A Fog Fog
4:36 AM 44.6 °F - 44.6 °F 100% 30.21 in 0.2 mi Calm Calm - N/A Fog Fog
4:53 AM 44.1 °F - 44.1 °F 100% 30.20 in 0.2 mi Calm Calm - N/A Fog Fog
5:14 AM 44.6 °F - 44.6 °F 100% 30.20 in 0.5 mi Calm Calm - N/A Fog Fog
5:21 AM 44.6 °F - 44.6 °F 100% 30.20 in 0.2 mi Calm Calm - N/A Fog Fog
5:53 AM 43.0 °F - 43.0 °F 100% 30.21 in 0.2 mi Calm Calm - N/A Fog Fog
6:10 AM 42.8 °F - 42.8 °F 100% 30.21 in 0.5 mi Calm Calm - N/A Fog Fog
6:34 AM 42.8 °F - 42.8 °F 100% 30.21 in 0.2 mi Calm Calm - N/A Fog Fog
6:53 AM 42.1 °F - 42.1 °F 100% 30.21 in 0.2 mi Calm Calm - N/A Fog Fog
7:05 AM 42.8 °F - 42.8 °F 100% 30.21 in 0.5 mi Calm Calm - N/A Fog Fog
7:19 AM 42.8 °F - 42.8 °F 100% 30.21 in 0.2 mi Calm Calm - N/A Fog Fog
7:53 AM 43.0 °F - 43.0 °F 100% 30.21 in 0.2 mi Calm Calm - N/A Fog Fog
8:53 AM 44.1 °F - 44.1 °F 100% 30.22 in 0.2 mi Calm Calm - N/A Fog Fog
9:53 AM 46.9 °F - 46.9 °F 100% 30.22 in 0.2 mi East 3.5 mph - N/A Fog Fog
10:45 AM 48.2 °F - 48.2 °F 100% 30.22 in 1.0 mi Calm Calm - N/A   Mist
10:48 AM 48.2 °F - 48.2 °F 100% 30.22 in 2.0 mi ESE 3.5 mph - N/A   Overcast
10:53 AM 48.9 °F - 48.9 °F 100% 30.22 in 2.0 mi Calm Calm - N/A   Overcast
10:57 AM 48.2 °F - 48.2 °F 100% 30.22 in 1.2 mi Calm Calm - N/A   Overcast
11:04 AM 50.0 °F - 50.0 °F 100% 30.22 in 0.2 mi Calm Calm - N/A Fog Fog
11:15 AM 50.0 °F - 50.0 °F 100% 30.22 in 1.0 mi Calm Calm - N/A   Overcast
11:17 AM 50.0 °F - 50.0 °F 100% 30.22 in 2.5 mi Calm Calm - N/A   Overcast
11:24 AM 51.8 °F - 51.8 °F 100% 30.22 in 8.0 mi Calm Calm - N/A   Overcast
11:46 AM 51.8 °F - 48.2 °F 88% 30.21 in 10.0 mi Calm Calm - N/A   Scattered Clouds
11:53 AM 51.1 °F - 48.9 °F 92% 30.22 in 10.0 mi Calm Calm - N/A   Partly Cloudy
12:53 PM 55.9 °F - 46.0 °F 69% 30.20 in 10.0 mi West 3.5 mph - N/A   Clear
1:04 PM - - - N/A% - - North - - N/A   Unknown
1:53 PM 55.9 °F - 44.1 °F 64% 30.19 in 10.0 mi WSW 6.9 mph - N/A   Scattered Clouds
2:53 PM 55.0 °F - 46.9 °F 74% 30.18 in 10.0 mi West 8.1 mph - N/A   Mostly Cloudy
3:53 PM 55.9 °F - 44.1 °F 64% 30.17 in 10.0 mi WSW 9.2 mph - 0.00 in   Partly Cloudy
4:53 PM 53.1 °F - 46.0 °F 77% 30.16 in 10.0 mi West 3.5 mph - N/A   Mostly Cloudy
5:53 PM 51.1 °F - 46.9 °F 86% 30.16 in 6.0 mi NNW 9.2 mph - 0.01 in Rain Light Rain
6:53 PM 48.0 °F - 46.9 °F 96% 30.16 in 10.0 mi Calm Calm - 0.00 in   Overcast
7:53 PM 46.9 °F - 46.0 °F 97% 30.17 in 8.0 mi Calm Calm - N/A   Overcast
8:10 PM 46.4 °F - 44.6 °F 93% 30.16 in 1.5 mi Calm Calm - N/A   Scattered Clouds
8:17 PM 44.6 °F - 44.6 °F 100% 30.16 in 0.8 mi Calm Calm - N/A   Scattered Clouds
8:24 PM 44.6 °F - 44.6 °F 100% 30.16 in 1.0 mi Calm Calm - N/A   Partly Cloudy
8:35 PM 44.6 °F - 44.6 °F 100% 30.16 in 2.0 mi Calm Calm - N/A   Mostly Cloudy
8:43 PM 44.6 °F - 44.6 °F 100% 30.17 in 4.0 mi Calm Calm - N/A   Mostly Cloudy
8:53 PM 45.0 °F - 45.0 °F 100% 30.17 in 4.0 mi Calm Calm - N/A   Overcast
9:09 PM 44.6 °F - 44.6 °F 100% 30.17 in 2.0 mi Calm Calm - N/A   Mostly Cloudy
9:22 PM 44.6 °F - 44.6 °F 100% 30.17 in 1.2 mi Calm Calm - N/A   Mostly Cloudy
9:29 PM 44.6 °F - 44.6 °F 100% 30.17 in 0.5 mi Calm Calm - N/A Fog Fog
9:44 PM 42.8 °F - 42.8 °F 100% 30.18 in 0.5 mi Calm Calm - N/A Fog Fog
9:53 PM 44.1 °F - 43.0 °F 96% 30.18 in 0.5 mi Calm Calm - N/A Fog Fog
10:17 PM 42.8 °F - 42.8 °F 100% 30.18 in 0.2 mi Calm Calm - N/A Fog Fog
10:24 PM 42.8 °F - 42.8 °F 100% 30.18 in 0.2 mi Calm Calm - N/A Fog Fog
10:36 PM 41.0 °F - 41.0 °F 100% 30.18 in 0.5 mi Calm Calm - N/A Fog Fog
10:46 PM 42.8 °F - 41.0 °F 93% 30.18 in 0.8 mi Calm Calm - N/A   Mostly Cloudy
10:51 PM 42.8 °F - 42.8 °F 100% 30.18 in 1.0 mi Calm Calm - N/A   Mostly Cloudy
10:53 PM 42.1 °F - 42.1 °F 100% 30.19 in 1.0 mi Calm Calm - N/A   Mostly Cloudy
10:57 PM 44.6 °F - 42.8 °F 93% 30.18 in 2.0 mi Calm Calm - N/A   Scattered Clouds
11:03 PM 41.0 °F - 41.0 °F 100% 30.18 in 1.2 mi Calm Calm - N/A   Partly Cloudy
11:17 PM 41.0 °F - 41.0 °F 100% 30.18 in 0.2 mi Calm Calm - N/A Fog Fog
11:24 PM 41.0 °F - 41.0 °F 100% 30.18 in 0.2 mi Calm Calm - N/A Fog Fog
11:37 PM 41.0 °F - 39.2 °F 93% 30.18 in 0.2 mi Calm Calm - N/A Fog Fog
11:53 PM 39.9 °F - 39.9 °F 100% 30.19 in 0.2 mi Calm Calm - N/A Fog Fog